No particular awareness of the weather is required.    There are no Weather-warnings


Meteo18 Weather Cam more information Meteo18 Weather Cam


Thunder radar more information blitzortung!


Rain radar more information rain snow radar


Visit our other weather sites:

Template documentation
and downloads

And another site



Weather Underground History page Text

Daily Summary for February 22, 2018 Units:  Metric    English   Both
« Previous Day
Next Day »
Daily Weekly Monthly Yearly Custom
  High: Low: Average:
Temperature: -17.8 °C -19.1 °C -17.3 °C
Dew Point: -17.8 °C -21 °C -19.8 °C
Humidity: Humidity % 58 % 74 %
Wind Speed: 0 km/h 2.3 km/h 22.4 km/h
Wind Gust: 0 km/h - -
Wind:- - ESE
Pressure: 0 hPa 34293.4 hPa -
Precipitation: 0 mm    
Historical Graphs
 
 
Tabular Data for February 22, 2018
Time Temperature Dew Point Pressure Wind Wind Speed Wind Gust Humidity Rainfall Rate (Hourly)
-17.8 °C -17.8 °C 0 hPa Calm     Humidity % 0 mm
00:00 -17.7 °C -18.7 °C 34428.8 hPa NNW 10.3 km/h 31.1 km/h 88 % 0 mm
00:06 -17.7 °C -18.7 °C 34428.8 hPa North 38.8 km/h 38.8 km/h 88 % 0 mm
00:12 -17.7 °C -18.7 °C 34428.8 hPa NE 20.9 km/h 28.5 km/h 88 % 0 mm
00:18 -17.7 °C -18.7 °C 34428.8 hPa NE 17.9 km/h 41.4 km/h 88 % 0 mm
00:24 -17.7 °C -18.7 °C 34428.8 hPa NW 2.3 km/h 36.2 km/h 87 % 0 mm
00:30 -17.7 °C -18.7 °C 34428.8 hPa NNE 26.2 km/h 44.1 km/h 88 % 0 mm
00:36 -17.7 °C -18.8 °C 34428.8 hPa NE 15.6 km/h 33.6 km/h 87 % 0 mm
00:42 -17.8 °C -18.8 °C 34428.8 hPa NNE 23 km/h 31.1 km/h 87 % 0 mm
00:48 -17.8 °C -18.9 °C 34428.8 hPa NNE 17.9 km/h 31.1 km/h 87 % 0 mm
00:54 -17.8 °C -18.9 °C 34418.7 hPa North 20.9 km/h 31.1 km/h 87 % 0 mm
01:00 -17.8 °C -18.9 °C 34418.7 hPa NE 17.9 km/h 23.3 km/h 87 % 0 mm
01:06 -17.8 °C -18.9 °C 34418.7 hPa NNE 12.7 km/h 28.5 km/h 87 % 0 mm
01:12 -17.8 °C -18.9 °C 34418.7 hPa NNW 33.6 km/h 38.8 km/h 87 % 0 mm
01:18 -17.8 °C -19 °C 34418.7 hPa NNE 17.9 km/h 36.2 km/h 86 % 0 mm
01:24 -17.9 °C -19.1 °C 34418.7 hPa NNE 15.6 km/h 28.5 km/h 86 % 0 mm
01:30 -17.9 °C -18.9 °C 34405.1 hPa North 10.3 km/h 33.6 km/h 87 % 0 mm
01:36 -17.9 °C -18.9 °C 34418.7 hPa NNE 15.6 km/h 25.9 km/h 87 % 0 mm
01:42 -18 °C -19.1 °C 34405.1 hPa North 17.9 km/h 31.1 km/h 87 % 0 mm
01:48 -18 °C -18.9 °C 34405.1 hPa NNE 17.9 km/h 38.8 km/h 88 % 0 mm
01:54 -18.1 °C -19 °C 34405.1 hPa NNE 20.9 km/h 38.8 km/h 88 % 0 mm
02:00 -18.1 °C -19.1 °C 34405.1 hPa NNE 15.6 km/h 44.1 km/h 88 % 0 mm
02:06 -18.1 °C -19.1 °C 34405.1 hPa NE 23 km/h 28.5 km/h 88 % 0 mm
02:12 -18.2 °C -19.1 °C 34405.1 hPa NE 41.7 km/h 41.7 km/h 88 % 0 mm
02:18 -18.2 °C -19.1 °C 34405.1 hPa NNE 20.9 km/h 31.1 km/h 88 % 0 mm
02:24 -18.2 °C -19.2 °C 34405.1 hPa NNE 20.9 km/h 41.4 km/h 88 % 0 mm
02:30 -18.2 °C -19.2 °C 34405.1 hPa NNW 20.9 km/h 36.2 km/h 88 % 0 mm
02:36 -18.2 °C -19.2 °C 34405.1 hPa NE 15.6 km/h 28.5 km/h 88 % 0 mm
02:42 -18.3 °C -19.2 °C 34405.1 hPa NNW 7.6 km/h 31.1 km/h 88 % 0 mm
02:48 -18.3 °C -19.2 °C 34395 hPa NW 10.3 km/h 23.3 km/h 88 % 0 mm
02:54 -18.3 °C -19.2 °C 34395 hPa NNE 20.9 km/h 33.6 km/h 88 % 0 mm
03:00 -18.3 °C -19.2 °C 34395 hPa North 36.5 km/h 36.5 km/h 88 % 0 mm
03:06 -18.3 °C -19.3 °C 34395 hPa NE 23 km/h 25.9 km/h 87 % 0 mm
03:12 -18.3 °C -19.3 °C 34395 hPa NNE 17.9 km/h 38.8 km/h 87 % 0 mm
03:20 -18.3 °C -19.3 °C 34395 hPa North 12.7 km/h 31.1 km/h 87 % 0 mm
03:26 -18.3 °C -19.3 °C 34395 hPa NNW 12.7 km/h 33.6 km/h 87 % 0 mm
03:32 -18.3 °C -19.4 °C 34395 hPa NE 26.2 km/h 31.1 km/h 87 % 0 mm
03:38 -18.3 °C -19.4 °C 34384.8 hPa NW 7.6 km/h 25.9 km/h 87 % 0 mm
03:44 -18.3 °C -19.4 °C 34384.8 hPa NNW 23 km/h 31.1 km/h 87 % 0 mm
03:50 -18.4 °C -19.4 °C 34384.8 hPa NNW 12.7 km/h 31.1 km/h 87 % 0 mm
03:56 -18.4 °C -19.4 °C 34384.8 hPa NNE 26.2 km/h 31.1 km/h 87 % 0 mm
04:02 -18.4 °C -19.5 °C 34384.8 hPa NNW 7.6 km/h 28.5 km/h 87 % 0 mm
04:08 -18.4 °C -19.5 °C 34384.8 hPa NNW 10.3 km/h 23.3 km/h 87 % 0 mm
04:14 -18.5 °C -19.6 °C 34371.3 hPa NNW 10.3 km/h 23.3 km/h 87 % 0 mm
04:20 -18.5 °C -19.4 °C 34371.3 hPa NNE 12.7 km/h 23.3 km/h 88 % 0 mm
04:26 -18.6 °C -19.6 °C 34371.3 hPa NNE 7.6 km/h 28.5 km/h 87 % 0 mm
04:32 -18.6 °C -19.5 °C 34371.3 hPa NNW 10.3 km/h 20.8 km/h 88 % 0 mm
04:38 -18.6 °C -19.5 °C 34371.3 hPa North 20.9 km/h 28.5 km/h 88 % 0 mm
04:44 -18.6 °C -19.6 °C 34371.3 hPa NNW 15.6 km/h 18.2 km/h 88 % 0 mm
04:50 -18.7 °C -19.6 °C 34371.3 hPa North 17.9 km/h 25.9 km/h 88 % 0 mm
04:56 -18.7 °C -19.6 °C 34371.3 hPa NNE 17.9 km/h 31.1 km/h 88 % 0 mm
05:03 -18.7 °C -19.7 °C 34371.3 hPa North 10.3 km/h 28.5 km/h 88 % 0 mm
05:09 -18.7 °C -19.6 °C 34371.3 hPa North 17.9 km/h 25.9 km/h 89 % 0 mm
05:15 -18.7 °C -19.6 °C 34371.3 hPa NW 12.7 km/h 36.2 km/h 89 % 0 mm
05:21 -18.7 °C -19.7 °C 34371.3 hPa NNE 20.9 km/h 36.2 km/h 88 % 0 mm
05:27 -18.7 °C -19.7 °C 34371.3 hPa North 20.9 km/h 28.5 km/h 88 % 0 mm
05:33 -18.7 °C -19.7 °C 34371.3 hPa NW 17.9 km/h 31.1 km/h 88 % 0 mm
05:39 -18.7 °C -19.7 °C 34371.3 hPa North 23 km/h 28.5 km/h 88 % 0 mm
05:45 -18.7 °C -19.7 °C 34371.3 hPa North 10.3 km/h 33.6 km/h 88 % 0 mm
06:03 -18.8 °C -19.7 °C 34371.3 hPa NNE 7.6 km/h 20.8 km/h 89 % 0 mm
06:09 -18.8 °C -19.7 °C 34371.3 hPa North 15.6 km/h 20.8 km/h 89 % 0 mm
06:15 -18.8 °C -19.7 °C 34371.3 hPa NNW 17.9 km/h 23.3 km/h 89 % 0 mm
06:21 -18.8 °C -19.7 °C 34371.3 hPa North 15.6 km/h 28.5 km/h 89 % 0 mm
06:27 -18.9 °C -19.8 °C 34371.3 hPa North 17.9 km/h 41.4 km/h 89 % 0 mm
06:33 -18.9 °C -19.8 °C 34371.3 hPa NE 12.7 km/h 31.1 km/h 89 % 0 mm
06:39 -18.9 °C -19.8 °C 34371.3 hPa NNE 12.7 km/h 33.6 km/h 89 % 0 mm
06:45 -18.9 °C -19.8 °C 34371.3 hPa NE 12.7 km/h 20.8 km/h 89 % 0 mm
06:51 -18.9 °C -19.8 °C 34371.3 hPa NNE 41.7 km/h 41.7 km/h 89 % 0 mm
06:57 -18.9 °C -19.8 °C 34371.3 hPa NE 23 km/h 31.1 km/h 89 % 0 mm
07:03 -19 °C -19.9 °C 34371.3 hPa North 7.6 km/h 20.8 km/h 89 % 0 mm
07:09 -19 °C -19.9 °C 34371.3 hPa North 5.1 km/h 33.6 km/h 89 % 0 mm
07:15 -19 °C -19.9 °C 34361.1 hPa NNW 33.6 km/h 33.6 km/h 89 % 0 mm
07:21 -19 °C -19.9 °C 34361.1 hPa NNE 7.6 km/h 28.5 km/h 89 % 0 mm
07:27 -19 °C -19.9 °C 34361.1 hPa North 7.6 km/h 31.1 km/h 89 % 0 mm
07:33 -19 °C -19.9 °C 34361.1 hPa NNE 10.3 km/h 23.3 km/h 88 % 0 mm
07:39 -19.1 °C -20 °C 34361.1 hPa North 17.9 km/h 18.2 km/h 88 % 0 mm
07:45 -19.1 °C -20 °C 34361.1 hPa NNW 23 km/h 36.2 km/h 88 % 0 mm
07:51 -19 °C -19.9 °C 34361.1 hPa NNW 20.9 km/h 36.2 km/h 88 % 0 mm
07:57 -19 °C -19.9 °C 34361.1 hPa NNW 12.7 km/h 23.3 km/h 88 % 0 mm
08:03 -19 °C -19.9 °C 34361.1 hPa NE 7.6 km/h 20.8 km/h 88 % 0 mm
08:09 -19 °C -19.9 °C 34361.1 hPa North 15.6 km/h 23.3 km/h 88 % 0 mm
08:15 -19 °C -19.9 °C 34361.1 hPa NNE 23 km/h 36.2 km/h 88 % 0 mm
08:21 -19 °C -19.9 °C 34361.1 hPa North 20.9 km/h 20.9 km/h 88 % 0 mm
08:27 -18.9 °C -19.9 °C 34371.3 hPa NNE 10.3 km/h 28.5 km/h 88 % 0 mm
08:33 -18.9 °C -20 °C 34361.1 hPa NNE 17.9 km/h 20.8 km/h 87 % 0 mm
08:39 -18.8 °C -19.9 °C 34371.3 hPa NNE 28.5 km/h 31.1 km/h 87 % 0 mm
08:47 -18.8 °C -19.8 °C 34361.1 hPa North 23 km/h 31.1 km/h 87 % 0 mm
08:53 -18.7 °C -19.8 °C 34371.3 hPa NE 7.6 km/h 20.8 km/h 87 % 0 mm
08:59 -18.7 °C -19.8 °C 34371.3 hPa NNE 31.4 km/h 41.4 km/h 86 % 0 mm
09:05 -18.7 °C -19.8 °C 34371.3 hPa NE 20.9 km/h 33.6 km/h 86 % 0 mm
09:11 -18.6 °C -19.7 °C 34371.3 hPa North 23 km/h 38.8 km/h 86 % 0 mm
09:17 -18.6 °C -19.7 °C 34371.3 hPa NNW 26.2 km/h 44.1 km/h 86 % 0 mm
09:23 -18.5 °C -19.7 °C 34361.1 hPa NE 15.6 km/h 36.2 km/h 85 % 0 mm
09:29 -18.4 °C -19.7 °C 34361.1 hPa North 17.9 km/h 25.9 km/h 85 % 0 mm
09:35 -18.4 °C -19.7 °C 34361.1 hPa North 28.5 km/h 36.2 km/h 84 % 0 mm
09:41 -18.3 °C -19.7 °C 34361.1 hPa NNE 10.3 km/h 44.1 km/h 83 % 0 mm
09:47 -18.3 °C -19.7 °C 34361.1 hPa NE 20.9 km/h 41.4 km/h 83 % 0 mm
09:53 -18.2 °C -19.7 °C 34361.1 hPa NNW 10.3 km/h 31.1 km/h 82 % 0 mm
10:01 -18.2 °C -19.8 °C 34361.1 hPa NW 5.1 km/h 38.8 km/h 81 % 0 mm
10:07 -18.1 °C -19.7 °C 34361.1 hPa NNE 20.9 km/h 38.8 km/h 81 % 0 mm
10:13 -18.1 °C -19.7 °C 34361.1 hPa ENE 17.9 km/h 31.1 km/h 81 % 0 mm
10:19 -18 °C -19.6 °C 34361.1 hPa NE 20.9 km/h 36.2 km/h 81 % 0 mm
10:25 -18 °C -19.7 °C 34361.1 hPa NNE 12.7 km/h 33.6 km/h 80 % 0 mm
10:31 -17.9 °C -19.7 °C 34361.1 hPa NE 33.6 km/h 46.7 km/h 79 % 0 mm
10:37 -17.9 °C -19.7 °C 34361.1 hPa North 20.9 km/h 46.7 km/h 79 % 0 mm
10:43 -17.8 °C -19.6 °C 34361.1 hPa North 17.9 km/h 41.4 km/h 79 % 0 mm
10:49 -17.7 °C -19.6 °C 34361.1 hPa NNE 41.7 km/h 41.7 km/h 78 % 0 mm
10:55 -17.7 °C -19.6 °C 34361.1 hPa North 28.5 km/h 31.1 km/h 78 % 0 mm
11:01 -17.6 °C -19.6 °C 34361.1 hPa WNW 5.1 km/h 36.2 km/h 77 % 0 mm
11:07 -17.5 °C -19.5 °C 34347.6 hPa North 20.9 km/h 38.8 km/h 77 % 0 mm
11:13 -17.5 °C -19.6 °C 34347.6 hPa ENE 23 km/h 41.4 km/h 76 % 0 mm
11:19 -17.4 °C -19.6 °C 34347.6 hPa NE 10.3 km/h 41.4 km/h 75 % 0 mm
11:25 -17.3 °C -19.4 °C 34347.6 hPa North 17.9 km/h 25.9 km/h 76 % 0 mm
11:31 -17.3 °C -19.7 °C 34347.6 hPa NE 36.5 km/h 54.4 km/h 73 % 0 mm
11:37 -17.2 °C -19.5 °C 34347.6 hPa NNE 28.5 km/h 36.2 km/h 74 % 0 mm
11:43 -17.2 °C -19.7 °C 34347.6 hPa North 36.5 km/h 49.2 km/h 72 % 0 mm
11:49 -17.1 °C -19.5 °C 34347.6 hPa NNE 15.6 km/h 33.6 km/h 73 % 0 mm
12:01 -17.1 °C -19.7 °C 34347.6 hPa North 28.5 km/h 51.8 km/h 71 % 0 mm
12:07 -17 °C -19.7 °C 34347.6 hPa NE 33.6 km/h 54.4 km/h 70 % 0 mm
12:13 -16.9 °C -19.6 °C 34347.6 hPa NNE 15.6 km/h 36.2 km/h 71 % 0 mm
12:19 -16.8 °C -19.6 °C 34347.6 hPa ENE 12.7 km/h 51.8 km/h 70 % 0 mm
12:25 -16.8 °C -19.7 °C 34337.4 hPa NNE 36.5 km/h 44.1 km/h 68 % 0 mm
12:31 -16.7 °C -19.7 °C 34337.4 hPa NE 28.5 km/h 44.1 km/h 68 % 0 mm
12:37 -16.7 °C -19.7 °C 34337.4 hPa NE 28.5 km/h 44.1 km/h 67 % 0 mm
12:43 -16.6 °C -19.5 °C 34327.3 hPa NE 23 km/h 49.2 km/h 68 % 0 mm
12:49 -16.5 °C -19.6 °C 34327.3 hPa NNE 44.1 km/h 51.8 km/h 67 % 0 mm
12:55 -16.6 °C -19.6 °C 34327.3 hPa NNW 33.6 km/h 57 km/h 67 % 0 mm
13:02 -16.5 °C -19.4 °C 34327.3 hPa NE 20.9 km/h 36.2 km/h 68 % 0 mm
13:08 -16.3 °C -19.4 °C 34337.4 hPa NW 12.7 km/h 38.8 km/h 67 % 0 mm
13:13 -16.3 °C -19.3 °C 34337.4 hPa NE 10.3 km/h 28.5 km/h 67 % 0 mm
13:19 -16.2 °C -19.6 °C 34327.3 hPa East 15.6 km/h 57 km/h 64 % 0 mm
13:26 -16.2 °C -19.6 °C 34327.3 hPa ENE 23 km/h 51.8 km/h 64 % 0 mm
13:31 -16.2 °C -19.2 °C 34327.3 hPa NNW 12.7 km/h 33.6 km/h 67 % 0 mm
13:38 -16.2 °C -19.3 °C 34327.3 hPa NW 38.8 km/h 44.1 km/h 66 % 0 mm
13:44 -16.1 °C -19.4 °C 34327.3 hPa NNE 28.5 km/h 36.2 km/h 65 % 0 mm
13:50 -16.2 °C -19.4 °C 34327.3 hPa NNW 28.5 km/h 36.2 km/h 65 % 0 mm
13:56 -16.1 °C -19.3 °C 34313.7 hPa North 38.8 km/h 46.7 km/h 65 % 0 mm
14:01 -16.1 °C -19.6 °C 34313.7 hPa NNE 33.6 km/h 54.4 km/h 63 % 0 mm
14:07 -15.9 °C -19.4 °C 34313.7 hPa NNE 26.2 km/h 51.8 km/h 64 % 0 mm
14:14 -15.9 °C -19.6 °C 34313.7 hPa NNE 31.4 km/h 49.2 km/h 62 % 0 mm
14:20 -16 °C -19.9 °C 34313.7 hPa NNE 33.6 km/h 59.5 km/h 60 % 0 mm
14:26 -15.9 °C -19.4 °C 34313.7 hPa NNE 44.1 km/h 54.4 km/h 64 % 0 mm
14:32 -15.9 °C -19.5 °C 34313.7 hPa North 41.7 km/h 54.4 km/h 63 % 0 mm
14:38 -15.9 °C -19.7 °C 34313.7 hPa NNW 26.2 km/h 57 km/h 61 % 0 mm
14:43 -15.9 °C -19.4 °C 34303.6 hPa ENE 31.4 km/h 36.2 km/h 63 % 0 mm
14:49 -15.9 °C -19.7 °C 34303.6 hPa NW 20.9 km/h 64.7 km/h 61 % 0 mm
14:56 -15.8 °C -19.5 °C 34303.6 hPa NNW 23 km/h 54.4 km/h 62 % 0 mm
15:02 -15.8 °C -19.4 °C 34303.6 hPa ENE 36.5 km/h 46.7 km/h 63 % 0 mm
15:08 -15.8 °C -19.3 °C 34303.6 hPa NNE 23 km/h 49.2 km/h 63 % 0 mm
15:14 -15.7 °C -19.3 °C 34303.6 hPa ENE 17.9 km/h 54.4 km/h 63 % 0 mm
15:20 -15.7 °C -19.1 °C 34303.6 hPa NE 31.4 km/h 31.4 km/h 65 % 0 mm
15:26 -15.8 °C -19.7 °C 34303.6 hPa NNE 38.8 km/h 54.4 km/h 60 % 0 mm
15:32 -15.7 °C -19.3 °C 34293.4 hPa NNE 38.8 km/h 44.1 km/h 63 % 0 mm
15:37 -15.8 °C -19.7 °C 34293.4 hPa NE 17.9 km/h 46.7 km/h 60 % 0 mm
15:44 -15.7 °C -19.3 °C 34303.6 hPa NNE 46.3 km/h 46.7 km/h 63 % 0 mm
15:49 -15.8 °C -19.3 °C 34293.4 hPa NNE 38.8 km/h 51.8 km/h 63 % 0 mm
15:55 -15.8 °C -19.8 °C 34303.6 hPa NE 44.1 km/h 54.4 km/h 59 % 0 mm
16:02 -15.7 °C -19.5 °C 34303.6 hPa NE 28.5 km/h 36.2 km/h 61 % 0 mm
16:07 -15.7 °C -19.2 °C 34303.6 hPa NNW 12.7 km/h 51.8 km/h 63 % 0 mm
16:14 -15.7 °C -19.3 °C 34303.6 hPa NNE 28.5 km/h 51.8 km/h 62 % 0 mm
16:20 -15.8 °C -19.3 °C 34303.6 hPa NE 31.4 km/h 46.7 km/h 63 % 0 mm
16:26 -15.8 °C -19.3 °C 34303.6 hPa NNE 31.4 km/h 46.7 km/h 63 % 0 mm
16:32 -15.8 °C -19.4 °C 34293.4 hPa NE 33.6 km/h 33.6 km/h 63 % 0 mm
16:38 -15.8 °C -19.4 °C 34303.6 hPa NE 41.7 km/h 54.4 km/h 63 % 0 mm
16:44 -15.8 °C -19.5 °C 34303.6 hPa NNW 15.6 km/h 46.7 km/h 62 % 0 mm
16:50 -15.9 °C -19.9 °C 34303.6 hPa NNE 26.2 km/h 49.2 km/h 59 % 0 mm
16:56 -15.9 °C -19.9 °C 34303.6 hPa NNE 33.6 km/h 49.2 km/h 59 % 0 mm
17:02 -15.9 °C -19.8 °C 34303.6 hPa NNE 23 km/h 33.6 km/h 60 % 0 mm
17:08 -15.9 °C -19.9 °C 34303.6 hPa NNE 23 km/h 51.8 km/h 59 % 0 mm
17:14 -15.9 °C -19.8 °C 34303.6 hPa NE 38.8 km/h 46.7 km/h 60 % 0 mm
17:20 -16 °C -20 °C 34303.6 hPa NE 28.5 km/h 51.8 km/h 59 % 0 mm
17:26 -16.1 °C -20.1 °C 34303.6 hPa NW 17.9 km/h 51.8 km/h 59 % 0 mm
17:32 -16.1 °C -19.9 °C 34303.6 hPa NNE 33.6 km/h 49.2 km/h 60 % 0 mm
17:38 -16.2 °C -20.1 °C 34303.6 hPa NE 41.7 km/h 49.2 km/h 60 % 0 mm
17:44 -16.2 °C -20.1 °C 34303.6 hPa NE 41.7 km/h 51.8 km/h 60 % 0 mm
17:50 -16.2 °C -19.9 °C 34313.7 hPa NE 12.7 km/h 41.4 km/h 61 % 0 mm
17:56 -16.2 °C -20 °C 34313.7 hPa NNE 20.9 km/h 41.4 km/h 61 % 0 mm
18:02 -16.3 °C -20.2 °C 34313.7 hPa NE 23 km/h 44.1 km/h 60 % 0 mm
18:08 -16.3 °C -19.9 °C 34313.7 hPa NNE 17.9 km/h 44.1 km/h 62 % 0 mm
18:14 -16.4 °C -20 °C 34313.7 hPa NE 12.7 km/h 44.1 km/h 62 % 0 mm
18:20 -16.4 °C -20.1 °C 34313.7 hPa North 20.9 km/h 46.7 km/h 62 % 0 mm
18:26 -16.4 °C -20.1 °C 34313.7 hPa North 17.9 km/h 44.1 km/h 62 % 0 mm
18:32 -16.5 °C -20.1 °C 34313.7 hPa NE 17.9 km/h 44.1 km/h 62 % 0 mm
18:38 -16.6 °C -20.2 °C 34313.7 hPa NE 33.6 km/h 44.1 km/h 62 % 0 mm
18:44 -16.6 °C -20.1 °C 34313.7 hPa NNE 17.9 km/h 41.4 km/h 63 % 0 mm
18:50 -16.7 °C -20.2 °C 34313.7 hPa NNW 20.9 km/h 38.8 km/h 63 % 0 mm
18:56 -16.7 °C -20.3 °C 34313.7 hPa NE 51.5 km/h 51.8 km/h 62 % 0 mm
19:02 -16.7 °C -20.2 °C 34327.3 hPa North 17.9 km/h 33.6 km/h 63 % 0 mm
19:08 -16.7 °C -20.2 °C 34327.3 hPa NNW 26.2 km/h 33.6 km/h 63 % 0 mm
19:14 -16.6 °C -20.2 °C 34327.3 hPa North 10.3 km/h 33.6 km/h 62 % 0 mm
19:20 -16.7 °C -20.2 °C 34327.3 hPa NNE 15.6 km/h 31.1 km/h 63 % 0 mm
19:26 -16.6 °C -20.3 °C 34327.3 hPa NNE 10.3 km/h 41.4 km/h 61 % 0 mm
19:32 -16.6 °C -20.2 °C 34327.3 hPa NE 33.6 km/h 33.6 km/h 62 % 0 mm
19:38 -16.6 °C -20.2 °C 34327.3 hPa NE 17.9 km/h 33.6 km/h 62 % 0 mm
19:44 -16.6 °C -20.2 °C 34327.3 hPa NNE 20.9 km/h 41.4 km/h 62 % 0 mm
19:50 -16.6 °C -20.2 °C 34327.3 hPa NE 15.6 km/h 33.6 km/h 62 % 0 mm
19:56 -16.6 °C -20.3 °C 34337.4 hPa North 12.7 km/h 46.7 km/h 61 % 0 mm
20:02 -16.6 °C -20.3 °C 34337.4 hPa NNE 38.8 km/h 49.2 km/h 61 % 0 mm
20:08 -16.6 °C -20.3 °C 34337.4 hPa NE 15.6 km/h 44.1 km/h 61 % 0 mm
20:14 -16.6 °C -20.3 °C 34337.4 hPa NE 20.9 km/h 36.2 km/h 61 % 0 mm
20:20 -16.7 °C -20.3 °C 34337.4 hPa NE 46.3 km/h 46.7 km/h 62 % 0 mm
20:26 -16.7 °C -20.4 °C 34327.3 hPa North 17.9 km/h 38.8 km/h 61 % 0 mm
20:32 -16.7 °C -20.4 °C 34327.3 hPa NNE 33.6 km/h 38.8 km/h 61 % 0 mm
20:38 -16.7 °C -20.4 °C 34327.3 hPa NNE 12.7 km/h 44.1 km/h 61 % 0 mm
20:44 -16.7 °C -20.4 °C 34327.3 hPa NNW 7.6 km/h 31.1 km/h 61 % 0 mm
20:50 -16.7 °C -20.4 °C 34327.3 hPa NNE 20.9 km/h 41.4 km/h 61 % 0 mm
20:56 -16.7 °C -20.3 °C 34327.3 hPa NNE 36.5 km/h 41.4 km/h 62 % 0 mm
21:02 -16.8 °C -20.4 °C 34327.3 hPa NNE 28.5 km/h 38.8 km/h 62 % 0 mm
21:08 -16.8 °C -20.5 °C 34327.3 hPa ENE 31.4 km/h 41.4 km/h 61 % 0 mm
21:14 -16.8 °C -20.5 °C 34327.3 hPa NE 26.2 km/h 38.8 km/h 61 % 0 mm
21:20 -16.8 °C -20.4 °C 34327.3 hPa NE 31.4 km/h 31.4 km/h 62 % 0 mm
21:26 -16.8 °C -20.5 °C 34327.3 hPa ENE 23 km/h 36.2 km/h 61 % 0 mm
21:32 -16.8 °C -20.6 °C 34327.3 hPa NE 26.2 km/h 51.8 km/h 60 % 0 mm
21:38 -16.8 °C -20.8 °C 34327.3 hPa NNE 26.2 km/h 46.7 km/h 59 % 0 mm
21:44 -16.8 °C -20.6 °C 34327.3 hPa NE 12.7 km/h 31.1 km/h 60 % 0 mm
21:50 -16.8 °C -20.7 °C 34327.3 hPa NE 23 km/h 36.2 km/h 60 % 0 mm
21:56 -16.8 °C -20.8 °C 34327.3 hPa NE 20.9 km/h 44.1 km/h 59 % 0 mm
22:02 -16.8 °C -20.8 °C 34327.3 hPa NNE 31.4 km/h 38.8 km/h 59 % 0 mm
22:08 -16.8 °C -20.8 °C 34327.3 hPa NNE 15.6 km/h 44.1 km/h 59 % 0 mm
22:14 -16.8 °C -20.8 °C 34327.3 hPa NE 33.6 km/h 46.7 km/h 59 % 0 mm
22:20 -16.8 °C -20.8 °C 34327.3 hPa NNE 31.4 km/h 41.4 km/h 59 % 0 mm
22:26 -16.8 °C -20.7 °C 34327.3 hPa NE 15.6 km/h 38.8 km/h 60 % 0 mm
22:32 -16.8 °C -20.7 °C 34327.3 hPa NNE 38.8 km/h 51.8 km/h 60 % 0 mm
22:38 -16.8 °C -20.8 °C 34327.3 hPa NE 17.9 km/h 49.2 km/h 59 % 0 mm
22:44 -16.8 °C -20.8 °C 34327.3 hPa NE 33.6 km/h 33.6 km/h 59 % 0 mm
22:50 -16.9 °C -20.7 °C 34327.3 hPa NE 33.6 km/h 51.8 km/h 60 % 0 mm
22:56 -16.9 °C -20.9 °C 34327.3 hPa NE 26.2 km/h 38.8 km/h 59 % 0 mm
23:02 -16.9 °C -20.9 °C 34327.3 hPa NE 41.7 km/h 46.7 km/h 59 % 0 mm
23:08 -16.9 °C -21 °C 34327.3 hPa NNE 28.5 km/h 44.1 km/h 58 % 0 mm
23:14 -16.9 °C -20.9 °C 34327.3 hPa NE 31.4 km/h 38.8 km/h 59 % 0 mm
23:20 -16.9 °C -20.9 °C 34327.3 hPa SSW 5.1 km/h 41.4 km/h 59 % 0 mm
23:26 -16.9 °C -20.8 °C 34313.7 hPa ENE 20.9 km/h 31.1 km/h 60 % 0 mm
23:38 -17 °C -20.7 °C 34327.3 hPa NE 31.4 km/h 33.6 km/h 61 % 0 mm
23:44 -17.1 °C -20.7 °C 34313.7 hPa North 23 km/h 31.1 km/h 62 % 0 mm
23:50 -17.1 °C -20.8 °C 34313.7 hPa ENE 23 km/h 46.7 km/h 61 % 0 mm
23:56 -17.1 °C -20.6 °C 34313.7 hPa NNE 28.5 km/h 33.6 km/h 63 % 0 mm
Meteo18
Compliments of Weather Underground - 4 mb

Script developed by  Jim McMurry - jmcmurry@mwt.net Adapted for the template by  Wim van der Kuil - Leuven-Template.eu

You find our weather info also at:

European Weather Network

Weather Underground

Equipment we use:

Weather-station
Davis Vue

Weather-program
Meteobridge

Weather-server
Raspberry PI 2 B+

Provider
1 and 1

Davis Vue

Meteobridge

Raspberry PI 2 B+

1 and 1